Regional Weather Roundup
Issued by NWS

Home | Current Version | Previous Version | Text Only | Print | Product List | Glossary Off
Versions: 1 2 3 4 5 6 7 8 9 10 11 12 13 14 15 16 17 18 19 20 21 22 23 24 25 26 27 28 29 30 31 32 33 34 35 36 37 38 39 40 41 42 43 44 45 46 47 48 49 50

000
ASUS45 KBOI 220610
RWRID

IDAHO REGIONAL WEATHER ROUNDUP
NATIONAL WEATHER SERVICE BOISE ID
1200 AM MDT SUN OCT 22 2017

NOTE: "FAIR" INDICATES FEW OR NO CLOUDS BELOW 12000 FEET
WITH NO SIGNIFICANT WEATHER AND/OR OBSTRUCTIONS TO VISIBILITY

IDZ012-014-220700-
SOUTHWEST IDAHO


CITY           SKY/WX    TMP DP  RH WIND       PRES   REMARKS
BOISE          CLOUDY    46  39  76 SE15      30.18F
CALDWELL       CLOUDY    47  41  80 E12       30.17F
MOUNTAIN HOME  CLOUDY    45  45 100 E17       30.21F
$$

IDZ016-017-220700-
SOUTHCENTRAL IDAHO


CITY           SKY/WX    TMP DP  RH WIND       PRES   REMARKS
BURLEY         CLOUDY    42  41  96 CALM      30.25F
JEROME         CLOUDY    42  42 100 NE8       30.26F
TWIN FALLS     CLOUDY    46  42  86 S13       30.23F
$$

IDZ019>023-220700-
SOUTHEAST IDAHO


CITY           SKY/WX    TMP DP  RH WIND       PRES   REMARKS
IDAHO FALLS    LGT RAIN  39  37  92 S21G28    30.26R WCI  29
POCATELLO      CLOUDY    42  37  82 S9        30.29S
REXBURG        LGT RAIN  37  35  92 S16G25    30.25S WCI  28
$$

IDZ006-010-011-018-031-032-220700-
CENTRAL IDAHO MOUNTAINS


CITY           SKY/WX    TMP DP  RH WIND       PRES   REMARKS
MCCALL         LGT RAIN  34  32  92 CALM      30.13F
HAILEY         FLURRIES  34  34 100 NW5       30.28S WCI  30
STANLEY          N/A     34  32  92 SE7       30.18F WCI  28
SALMON         LGT RAIN  44  33  65 S17G24    30.10F
CHALLIS        CLOUDY    42  31  64 S10       30.13F
$$

IDZ002-004-006-007-026-220700-
NORTHERN IDAHO


CITY           SKY/WX    TMP DP  RH WIND       PRES   REMARKS
LEWISTON       CLOUDY    51  41  68 S26G35    29.88F
LOWELL           N/A     43  40  89 VRB7      30.02F
COEUR D`ALENE  RAIN      42  41  96 S16       29.77F
MULLAN PASS    SNOW      31  28  89 S8G20     29.82S VSB 1/4 WCI  23
$$



USA.gov is the U.S. government's official web portal to all federal, state and local government web resources and services.